Погода в Новой Чернушке

Россия / Удмуртская Республика     57°01′49″N   53°04′51″E
темп.,
°C
ветер,
м/с
пор.,
м/с
влажн.,
%
обл.,
%
осадки,
мм/ч
давл.,
гПа
погр.,
м
26 февраля, пт
пт2601:00−25вюв379852 0.0 1023188
04:00−25вюв379773 0.1 1023212
07:00−26вюв2699100 0.0 1023180
10:00−23юв3796100 0.1 1022299
13:00−19юв4891100 0.0 1021440
16:00−18юв4991100 0.0 1020489
19:00−20юв41195100 0.0 1017396
22:00−20юв51294100 0.0 1014454
27 февраля, сб
сб2701:00−19юв51393100 0.0 1010507
04:00−17юв61395100 0.4 1008595
07:00−16юв51295100 1.6 1005667
10:00−15вюв51093100 2.8 1004605
13:00−12вюв5990100 0.3 1003620
16:00−11вюв4891100 0.6 1003662
19:00−11в4994100 0.4 1003501
22:00−12всв4994100 0.5 1004389
28 февраля, вс
вс2801:00−14всв4894100 0.2 1004339
04:00−16св499499 0.3 1006330
07:00−18св4894100 0.1 1006340
10:00−16св489199 0.1 1007349
13:00−14св3789100 0.0 1008429
16:00−13ссв4788100 0.1 1010551
19:00−17ссв3895100 0.0 1011258
22:00−19ссв389675 0.0 1014193
1 марта, пн
пн101:00−20ссв399629 0.0 1015206
04:00−20ссв399529 0.0 1017238
07:00−22ссв38950 0.0 1019190
10:00−17ссв36890 0.0 1020293
13:00−12ссв24810 0.0 1021420
16:00−10ссз138115 0.0 1020578
19:00−15зсз229555 0.0 102120
22:00−17зюз229828 0.0 102020
2 марта, вт
вт201:00−19зюз259827 0.0 1018111
04:00−18юз389538 0.0 1016240
07:00−16ююз4993100 0.0 1013330
10:00−13ююз4994100 0.5 1010403
13:00−10ююз4893100 0.9 1008499
16:00−8ююз3794100 1.7 1006532
19:00−9ююз3796100 0.6 1005321
22:00−10ю269699 0.9 1004198